Regional Weather Roundup
Issued by NWS

Home | Current Version | Previous Version | Graphics & Text | Print | Product List | Glossary On
Versions: 1 2 3 4 5 6 7 8 9 10 11 12 13 14 15 16 17 18 19 20 21 22 23 24 25 26 27 28 29 30 31 32 33 34 35 36 37 38 39 40 41 42 43 44 45 46 47 48 49 50
000
ASUS43 KFSD 301602
RWRSD

WEATHER ROUNDUP FOR SOUTH DAKOTA
NATIONAL WEATHER SERVICE SIOUX FALLS SD
1100 AM CDT THU OCT 30 2014

NOTE: "FAIR" INDICATES FEW OR NO CLOUDS BELOW 12,000 FEET WITH NO
SIGNIFICANT WEATHER AND/OR OBSTRUCTIONS TO VISIBILITY.


SDZ001>005-009-010-012>017-301700-
NORTHWEST AND NORTH CENTRAL SOUTH DAKOTA

CITY           SKY/WX    TMP DP  RH WIND       PRES   REMARKS
BUFFALO          N/A     35  32  88 N12       30.27R WCI  27
FAITH            N/A     37  33  85 N17       30.30R
MOBRIDGE       CLOUDY    37  32  82 N12G21    30.27R
$$

SDZ012>016-024>037-041>051-057-063-072>074-301700-
SOUTHWEST AND SOUTH CENTRAL SOUTH DAKOTA

CITY           SKY/WX    TMP DP  RH WIND       PRES   REMARKS
RAPID CTY ARPT SUNNY     53  35  50 N12       30.30R
PIERRE         SUNNY     44  34  67 N24G30    30.24R
CUSTER         SUNNY     50  29  44 N5        30.31R
ELLSWORTH AFB  SUNNY     53  34  48 NE13G25   30.29R
PHILIP         SUNNY     46  35  65 NW16      30.30R
PINE RIDGE     SUNNY     49  32  52 NW6       30.30S
SPEARFISH      FAIR      50  32  50 NW12      30.32R
WINNER         FAIR      49  35  58 NW24      30.23R
$$

SDZ004>011-016>023-039-040-301700-
NORTHEAST SOUTH DAKOTA

CITY           SKY/WX    TMP DP  RH WIND       PRES   REMARKS
ABERDEEN       CLOUDY    40  37  89 N21G26    30.21R
WATERTOWN      CLOUDY    43  41  93 N16       30.12R
SISSETON         N/A     40  40 100 N14       30.16R
$$

SDZ017-020-022-023-036>040-048>070-301700-
SOUTHEAST SOUTH DAKOTA

CITY           SKY/WX    TMP DP  RH WIND       PRES   REMARKS
SIOUX FALLS    MOSUNNY   52  38  58 N16       30.08R
HURON          CLOUDY    42  35  76 N21       30.17R
CHAMBERLAIN    SUNNY     46  35  67 NW24      30.20R
MITCHELL       MOSUNNY   47  38  71 N20G28    30.16R
YANKTON        SUNNY     48  39  71 NW18G26   30.12R
$$

ABBREVIATIONS USED IN REMARKS
   TC - TEMPERATURE IN CELSIUS
  WCI - WIND CHILL INDEX
   HX - HEAT INDEX
  VSB - VISIBILITY




USA.gov is the U.S. government's official web portal to all federal, state and local government web resources and services.